Proserpine Hamilton Isla, Australia

2:29 AM AEST on March 27, 2017 (GMT +1000)
Proserpine Hamilton Isla

Weather History for 94368 - March, 2014

Change the Weather History Date:

Saturday, March 29, 2014

  Actual Average Record
Temperature  
Mean Temperature 78 °F -  
Max Temperature 82 °F - - ()
Min Temperature 75 °F - - ()
Cooling Degree Days 14    
Growing Degree Days 28 (Base 50)    
Moisture  
Dew Point 76 °F    
Average Humidity 89    
Maximum Humidity 100    
Minimum Humidity 76    
Precipitation  
Precipitation 0.00 in - - ()
Sea Level Pressure  
Sea Level Pressure 29.96 in    
Wind  
Wind Speed 3 mph ()    
Max Wind Speed 14 mph    
Max Gust Speed -    
Visibility 5.4 miles    
Events      
T = Trace of Precipitation, MM = Missing Value Source: Averaged Metar Reports

Daily Weather History Graph

Daily Weather History Graph

Search for Another Location

Airport or City:

Trip Planner

Search our weather history database for the weather conditions in past years. The results will help you decide how hot, cold, wet, or windy it might be!

Date:

Astronomy

Mar. 29, 2014 Rise Set
Actual Time 6:10 AM AEST 6:07 PM AEST
Civil Twilight 5:48 AM AEST 6:29 PM AEST
Nautical Twilight 5:22 AM AEST 6:55 PM AEST
Astronomical Twilight 4:57 AM AEST 7:20 PM AEST
Moon 4:18 AM AEST (3/29) 4:51 PM AEST (3/29)
Length of Visible Light 12h 41m
Length of Day
11h 57m
Waning Crescent, 4% of the Moon is Illuminated
Mar 29
Waning Crescent
Mar 31
New
Apr 7
First Quarter
Apr 15
Full
Apr 22
Last Quarter

Hourly Weather History & Observations

Time (AEST) Temp. Heat Index Dew Point Humidity Pressure Visibility Wind Dir Wind Speed Gust Speed Precip Events Conditions
12:00 AM 78 °F - 76 °F 91% 29.96 in 6 mi Calm Calm - -  
12:00 AM 77.0 °F - 75.2 °F 94% 29.95 in 5.6 mi Calm Calm - N/A   Unknown
12:30 AM 77.0 °F - 75.2 °F 94% 29.95 in 5.0 mi Calm Calm - N/A   Unknown
1:00 AM 77.0 °F - 75.2 °F 94% 29.92 in 5.6 mi Calm Calm - N/A   Unknown
1:30 AM 77.0 °F - 75.2 °F 94% 29.92 in 5.6 mi Calm Calm - N/A   Unknown
2:00 AM 77.0 °F - 75.2 °F 94% 29.92 in 5.0 mi Calm Calm - N/A   Unknown
2:32 AM 77.0 °F - 75.2 °F 94% 29.92 in 3.7 mi Calm Calm - N/A   Unknown
2:54 AM 77.0 °F - 75.2 °F 94% 29.92 in 3.7 mi Calm Calm - N/A   Unknown
3:00 AM 77 °F - 76 °F 94% 29.91 in 4 mi Calm Calm - -  
3:00 AM 77.0 °F - 75.2 °F 94% 29.92 in 3.7 mi Calm Calm - N/A   Unknown
3:15 AM 77.0 °F - 75.2 °F 94% 29.92 in 4.3 mi Calm Calm - N/A   Unknown
3:35 AM 77.0 °F - 75.2 °F 94% 29.92 in 3.7 mi Calm Calm - N/A   Unknown
4:00 AM 77.0 °F - 75.2 °F 94% 29.92 in 3.7 mi Calm Calm - N/A   Unknown
4:16 AM 77.0 °F - 75.2 °F 94% 29.92 in 5.0 mi Calm Calm - N/A   Unknown
4:30 AM 77.0 °F - 75.2 °F 94% 29.92 in 4.3 mi Calm Calm - N/A   Unknown
5:03 AM 77.0 °F - 75.2 °F 94% 29.92 in 3.7 mi Calm Calm - N/A   Unknown
5:17 AM 75.2 °F - 75.2 °F 100% 29.92 in 5.0 mi Calm Calm - N/A   Unknown
5:30 AM 77.0 °F - 75.2 °F 94% 29.92 in 5.0 mi Calm Calm - N/A   Unknown
6:00 AM 76 °F - 75 °F 97% 29.94 in 4 mi Calm Calm - -  
6:00 AM 77.0 °F - 75.2 °F 94% 29.95 in 4.3 mi Calm Calm - N/A   Unknown
6:08 AM 77.0 °F - 75.2 °F 94% 29.95 in 3.7 mi Calm Calm - N/A   Unknown
6:30 AM 77.0 °F - 75.2 °F 94% 29.95 in 3.7 mi Calm Calm - N/A   Unknown
6:55 AM 77.0 °F - 77.0 °F 100% 29.95 in 3.7 mi Calm Calm - N/A   Unknown
7:00 AM 77.0 °F - 77.0 °F 100% 29.95 in 4.3 mi Calm Calm - N/A   Unknown
7:15 AM 78.8 °F - 77.0 °F 94% 29.98 in 4.3 mi Calm Calm - N/A   Unknown
7:30 AM 78.8 °F - 77.0 °F 94% 29.98 in 4.3 mi Calm Calm - N/A   Unknown
8:00 AM 78.8 °F - 77.0 °F 94% 29.98 in 5.6 mi SE 2.3 mph - N/A   Unknown
8:30 AM 80.6 °F 87.1 °F 77.0 °F 89% 30.01 in 6.2 mi SE 6.9 mph - N/A   Unknown
9:00 AM 80 °F - 76 °F 84% 30.00 in - SE 6.9 mph - -  
9:00 AM 80.6 °F 87.1 °F 77.0 °F 89% 30.01 in 6.2 mi SE 6.9 mph - N/A   Unknown
9:30 AM 80.6 °F 87.1 °F 77.0 °F 89% 30.01 in 6.2 mi SE 6.9 mph - N/A   Unknown
10:00 AM 80.6 °F 87.1 °F 77.0 °F 89% 30.01 in 6.2 mi SE 6.9 mph - N/A   Unknown
10:30 AM 82.4 °F 90.9 °F 77.0 °F 84% 30.01 in 6.2 mi SE 6.9 mph - N/A   Unknown
11:00 AM 82.4 °F 90.9 °F 77.0 °F 84% 30.01 in 6.2 mi SE 6.9 mph - N/A   Unknown
11:30 AM 82.4 °F 90.9 °F 77.0 °F 84% 29.98 in 6.2 mi SE 8.1 mph - N/A   Unknown
12:00 PM 82 °F - 76 °F 79% 29.99 in - SE 8.1 mph - -  
12:00 PM 82.4 °F 90.9 °F 77.0 °F 84% 29.98 in 6.2 mi SE 8.1 mph - N/A   Unknown
12:30 PM 82.4 °F 90.9 °F 77.0 °F 84% 29.98 in 6.2 mi SE 8.1 mph - N/A   Unknown
1:00 PM 82.4 °F 90.9 °F 77.0 °F 84% 29.98 in 6.2 mi SE 8.1 mph - N/A   Unknown
1:30 PM 82.4 °F 90.9 °F 77.0 °F 84% 29.95 in 6.2 mi SE 8.1 mph - N/A   Unknown
2:00 PM 82.4 °F 90.9 °F 77.0 °F 84% 29.95 in 6.2 mi SE 8.1 mph - N/A   Unknown
2:30 PM 82.4 °F 90.9 °F 77.0 °F 84% 29.95 in 6.2 mi ESE 9.2 mph - N/A   Unknown
3:00 PM 82 °F - 76 °F 76% 29.94 in - East 8.1 mph - -  
3:00 PM 82.4 °F 89.5 °F 75.2 °F 79% 29.95 in 6.2 mi East 8.1 mph - N/A   Unknown
3:30 PM 82.4 °F 89.5 °F 75.2 °F 79% 29.95 in 6.2 mi East 10.4 mph - N/A   Unknown
4:00 PM 80.6 °F 86.2 °F 75.2 °F 84% 29.95 in 6.2 mi East 12.7 mph - N/A   Unknown
4:30 PM 80.6 °F 86.2 °F 75.2 °F 84% 29.95 in 6.2 mi East 13.8 mph - N/A   Unknown
5:00 PM 80.6 °F 86.2 °F 75.2 °F 84% 29.95 in 6.2 mi NE 11.5 mph - N/A   Unknown
5:30 PM 80.6 °F 85.4 °F 73.4 °F 79% 29.95 in 6.2 mi ENE 9.2 mph - N/A   Unknown
6:00 PM 80 °F - 75 °F 81% 29.95 in - ENE 6.9 mph - -  
6:00 PM 80.6 °F 86.2 °F 75.2 °F 84% 29.95 in 6.2 mi ENE 6.9 mph - N/A   Unknown
6:30 PM 78.8 °F - 75.2 °F 89% 29.95 in 6.2 mi ENE 6.9 mph - N/A   Unknown
7:00 PM 78.8 °F - 75.2 °F 89% 29.98 in 6.2 mi ENE 6.9 mph - N/A   Unknown
7:30 PM 78.8 °F - 75.2 °F 89% 29.98 in 6.2 mi ENE 4.6 mph - N/A   Unknown
8:00 PM 78.8 °F - 75.2 °F 89% 29.98 in 6.2 mi East 3.5 mph - N/A   Unknown
8:30 PM 78.8 °F - 75.2 °F 89% 29.98 in 6.2 mi East 5.8 mph - N/A   Unknown
9:00 PM 78 °F - 75 °F 89% 30.00 in - East 4.6 mph - -  
9:00 PM 78.8 °F - 75.2 °F 89% 30.01 in 6.2 mi East 4.6 mph - N/A   Unknown
9:30 PM 78.8 °F - 75.2 °F 89% 30.01 in 6.2 mi East 4.6 mph - N/A   Unknown
10:00 PM 78.8 °F - 75.2 °F 89% 30.01 in 6.2 mi East 5.8 mph - N/A   Unknown
10:30 PM 78.8 °F - 75.2 °F 89% 30.01 in 6.2 mi East 4.6 mph - N/A   Unknown
11:00 PM 78.8 °F - 75.2 °F 89% 29.98 in 6.2 mi East 6.9 mph - N/A   Unknown
11:30 PM 78.8 °F - 75.2 °F 89% 29.98 in 6.2 mi East 6.9 mph - N/A   Unknown